Theta_e
344 347 348 347 346 345 343 341 341 340 339 340 335 334 333 332 332 331 330 329 327 327 327 325 324 326 322 321 321 320 317 318 314 316 320 324 327 326 327 329 330 328 326
337 341 342 343 344 342 341 340 338 336 335 333 331 328 327 327 328 325 322 323 321 319 319 320 319 319 322 323 318 320 318 319 315 313 317 320 322 325 325 326 326 329 327
336 336 340 341 340 337 336 337 334 333 329 326 323 323 323 325 323 321 320 319 320 321 321 320 320 321 320 319 320 319 318 318 318 315 313 316 318 321 322 324 325 324 328
336 337 336 335 335 337 337 334 332 327 324 322 322 319 322 321 320 320 319 321 321 320 320 319 319 319 318 318 318 319 318 317 316 315 313 313 315 318 318 317 317 323 321
335 336 335 336 337 336 334 331 327 324 322 321 319 319 322 320 317 320 320 320 319 318 319 317 318 317 314 316 314 316 319 315 313 312 311 311 312 312 313 314 315 318 322
336 336 336 335 335 333 330 327 325 323 322 319 317 317 317 317 308 308 313 319 319 317 316 317 317 316 315 312 312 312 313 314 314 313 310 310 313 313 314 317 314 314 310
334 332 330 333 331 329 327 326 324 323 322 320 318 317 318 321 304 304 307 317 316 316 316 316 315 314 314 312 311 310 311 310 310 313 312 313 314 316 315 315 316 315 314
326 325 327 328 328 327 327 325 325 324 321 320 320 319 319 318 303 302 304 316 316 316 316 315 314 312 311 308 309 310 310 312 313 314 315 315 317 317 316 315 314 314 318
321 321 323 325 325 325 322 323 323 321 321 321 319 319 318 318 302 301 307 315 314 315 314 313 311 311 302 300 308 305 305 306 309 308 306 304 303 303 305 311 310 308 310
320 321 321 322 321 320 321 321 319 319 319 319 319 318 309 316 303 300 305 313 313 311 312 312 305 306 299 298 308 308 304 305 305 306 308 308 308 312 304 310 312 310 311
317 317 319 320 319 318 319 318 319 319 318 318 316 316 315 311 312 299 300 312 310 309 309 309 310 301 298 296 296 310 305 305 306 306 306 306 309 310 310 312 313 312 311
316 316 316 317 316 317 318 320 319 317 315 312 312 313 314 314 303 300 298 299 303 310 309 309 310 297 295 296 300 298 297 303 308 306 307 306 308 308 309 311 312 312 315
315 315 316 317 318 318 317 318 315 314 312 311 311 310 310 311 313 301 299 298 300 305 308 305 298 296 296 301 300 298 299 311 310 308 308 307 309 311 312 309 309 311 312
316 317 317 317 316 316 314 312 312 312 312 311 308 307 308 309 310 308 305 304 302 303 303 305 302 299 297 301 305 307 310 310 309 307 307 309 310 307 307 309 307 312 310
315 315 314 312 311 312 312 310 313 311 307 309 308 308 307 307 306 297 298 302 303 299 300 305 304 304 304 305 305 306 308 307 307 307 307 307 308 305 305 311 310 309 309
313 311 308 309 308 310 311 312 295 296 296 296 296 300 308 300 295 293 294 292 292 293 301 301 301 302 302 303 303 303 305 304 304 304 305 307 308 304 304 305 310 309 308
311 308 310 308 310 309 309 309 308 304 297 297 296 296 293 291 293 294 294 293 293 296 300 300 301 301 302 302 302 302 302 304 305 304 304 305 306 303 303 304 305 309 307
309 304 310 309 308 307 306 307 308 308 306 307 300 298 293 292 292 292 293 297 301 300 301 301 300 301 301 301 301 301 302 302 303 303 303 305 301 301 302 302 304 305 307
312 312 309 306 306 305 308 308 308 308 307 307 308 302 301 294 292 293 295 302 300 300 300 301 301 301 301 302 302 302 303 303 302 303 301 301 299 301 303 303 308 299 300
313 300 300 307 307 306 307 306 307 308 307 307 307 307 308 305 306 304 304 302 301 300 300 300 301 300 298 300 302 303 303 302 302 303 302 300 298 301 302 301 302 302 300
309 308 301 309 308 306 305 307 307 306 306 307 307 304 288 304 305 303 303 302 301 301 300 300 300 301 300 298 297 300 301 301 303 303 302 301 300 299 301 302 300 300 298
313 310 308 307 305 302 304 303 305 304 305 306 305 304 290 304 306 304 305 303 302 302 301 300 300 300 300 296 297 295 298 299 302 303 303 301 302 302 301 302 301 300 300
313 310 308 307 306 301 302 306 307 308 307 308 308 308 305 305 304 305 303 304 303 302 301 300 299 298 300 300 297 296 300 296 298 304 304 302 302 302 300 300 300 300 298
311 311 307 306 309 309 309 309 308 298 303 303 303 303 303 303 302 302 303 303 303 301 301 300 300 298 298 299 299 296 296 291 294 302 307 304 303 300 304 300 305 300 298
306 305 304 304 304 303 303 304 304 303 303 302 301 299 299 299 301 301 302 301 300 300 300 300 300 300 299 298 298 296 291 286 289 288 305 306 304 305 304 304 301 303 304
302 302 302 303 302 302 302 302 301 302 301 300 297 297 299 299 299 300 299 299 299 299 299 299 299 299 299 299 295 288 286 286 287 286 297 308 305 304 303 303 303 301 299
Wind_Speed
5 9 9 6 6 6 6 6 6 5 4 6 7 8 8 7 5 4 4 3 3 3 3 4 6 5 5 5 5 6 7 7 9 9 9 9 10 10 10 10 11 9 10
6 7 10 8 7 7 7 7 6 9 9 8 8 6 5 5 5 5 4 3 4 5 5 6 7 5 8 7 6 7 8 9 9 12 10 10 10 11 11 10 8 9 9
7 9 9 8 8 8 8 8 9 9 8 7 6 5 4 3 3 2 1 3 5 5 6 8 9 8 8 7 8 9 9 8 8 9 10 9 10 9 9 9 10 9 9
8 10 9 8 8 9 9 9 9 8 8 6 4 3 3 4 4 3 4 5 5 6 6 6 7 7 7 9 9 10 9 9 10 9 9 9 8 10 8 9 8 7 8
10 10 9 8 9 9 10 9 8 7 5 5 4 4 4 4 2 3 5 6 6 7 7 7 7 8 12 11 8 10 11 10 10 10 10 9 9 9 9 9 9 8 8
9 8 9 9 9 10 10 9 7 6 5 4 4 3 3 3 6 2 5 4 5 6 8 9 9 9 7 9 9 10 11 11 12 11 11 10 11 9 8 7 8 7 4
8 9 10 10 9 8 8 8 6 5 4 4 4 4 5 3 4 3 3 6 7 8 8 7 8 7 8 11 12 14 14 12 14 12 13 12 11 8 6 9 8 8 8
11 10 8 7 8 7 7 6 4 2 2 3 4 3 4 2 6 7 7 7 7 7 6 6 6 6 7 8 11 12 13 13 13 10 12 13 11 9 7 7 9 10 8
6 7 7 6 6 5 4 2 1 3 4 4 4 4 4 5 7 6 7 5 6 7 6 5 5 5 6 6 10 10 12 11 12 10 12 14 14 12 11 9 9 7 8
3 4 4 4 2 1 1 1 2 4 4 4 5 4 4 6 6 5 6 5 6 7 7 4 7 6 9 7 10 10 11 12 10 10 10 9 10 10 11 11 11 10 8
2 4 4 4 3 3 4 4 4 4 4 4 5 4 5 3 4 3 4 5 6 7 5 5 6 6 10 12 7 8 10 11 11 8 7 6 6 7 7 8 11 11 10
2 4 4 3 3 3 4 3 2 4 4 3 5 6 4 4 3 4 2 4 6 7 7 7 8 12 15 12 10 8 10 9 6 6 7 7 7 6 7 7 8 8 11
2 3 3 3 5 4 3 2 2 3 4 4 4 5 5 5 4 1 6 6 5 6 7 10 13 14 12 10 6 13 10 7 8 9 9 9 9 9 9 5 5 9 10
3 4 4 5 4 4 3 3 4 4 3 4 5 6 6 6 5 5 5 5 6 5 7 5 7 9 8 7 8 7 7 7 8 8 9 8 7 6 7 5 5 6 7
7 8 9 7 8 6 4 5 4 4 4 5 5 5 5 5 6 5 5 6 7 8 9 7 7 8 8 9 9 9 8 8 8 9 9 8 8 6 6 5 5 4 5
11 8 5 4 2 5 5 1 7 7 6 5 4 4 3 4 7 6 4 6 8 8 6 7 8 8 9 9 9 9 8 9 9 9 9 9 10 6 6 4 6 7 7
10 8 8 6 4 3 4 4 4 4 3 3 3 0 3 7 4 4 5 1 6 10 9 8 8 8 8 9 9 9 9 9 10 9 9 10 9 8 5 5 4 4 5
5 6 5 5 4 5 4 4 3 1 4 4 4 3 6 6 7 7 7 5 8 9 8 8 8 8 8 8 9 9 9 9 9 10 10 10 7 7 7 6 6 5 4
4 5 4 2 2 2 1 2 3 2 3 2 2 5 5 4 3 3 3 7 8 8 7 7 8 9 9 9 10 10 11 10 10 10 10 10 8 8 7 7 4 7 9
5 9 2 3 2 1 2 4 2 1 2 0 1 4 5 3 1 4 5 6 7 7 7 7 8 8 9 12 11 10 10 10 10 10 10 8 8 7 8 8 6 9 9
3 4 0 2 1 3 2 2 3 3 2 3 4 5 4 5 3 3 4 5 6 7 7 7 7 8 8 8 10 12 11 12 11 11 10 9 6 7 6 7 9 10 11
2 3 3 2 2 2 1 2 3 4 5 5 3 1 2 4 1 1 2 4 5 5 6 7 7 7 7 8 9 8 11 11 11 11 10 10 9 7 7 7 8 8 7
1 3 2 4 2 4 3 6 4 5 5 6 6 5 4 2 3 3 3 4 4 5 6 7 8 8 8 7 7 9 11 9 10 10 10 9 9 7 6 6 6 6 6
5 5 5 3 2 4 2 2 2 4 4 6 7 6 6 7 6 7 5 4 4 5 6 6 7 10 9 9 8 9 9 9 8 10 12 9 8 6 6 4 6 8 6
7 6 6 6 6 6 5 5 5 5 5 6 6 6 5 5 6 7 6 5 5 5 6 7 7 10 12 13 12 15 14 13 10 10 9 7 8 8 5 7 8 6 7
8 8 7 7 7 7 7 6 6 6 6 7 5 5 6 6 6 6 6 7 6 6 7 6 8 13 13 10 14 14 10 12 10 11 8 7 6 5 7 6 9 8 6
Wind_Direction
141 152 138 141 142 132 128 127 131 141 146 123 100 91 94 93 92 97 77 45 352 337 331 315 314 316 306 301 290 278 268 277 280 293 288 292 293 292 293 278 254 242 238
281 126 110 117 135 123 117 128 133 115 110 111 107 104 100 94 76 69 58 25 316 311 318 308 303 297 288 285 288 292 296 294 295 293 293 288 275 289 285 279 271 257 253
157 106 123 139 133 125 127 130 126 120 114 109 105 84 74 82 113 116 293 273 279 293 305 301 296 294 289 297 290 283 286 285 283 287 286 285 286 285 284 273 273 262 263
124 124 133 146 134 127 137 145 132 126 124 115 99 112 169 184 196 225 261 277 287 292 296 297 291 281 286 302 296 294 289 284 282 279 284 292 284 287 276 285 282 261 262
126 139 142 135 136 144 140 141 136 139 136 136 155 194 204 221 233 326 304 290 278 291 300 316 310 307 296 286 296 298 296 282 281 279 284 288 286 294 285 291 282 293 285
147 145 143 138 150 150 145 145 152 152 157 164 193 232 274 275 67 288 269 280 297 316 317 311 307 291 331 306 299 287 283 282 278 283 281 286 283 293 297 298 285 291 292
146 132 127 132 139 149 153 155 163 164 176 209 244 254 263 289 56 77 26 341 320 318 316 318 314 334 328 335 320 306 288 250 246 273 276 277 285 286 312 303 303 292 274
128 116 129 137 146 159 165 168 155 167 244 262 262 280 303 62 43 11 335 314 313 324 327 319 311 333 10 333 327 318 318 309 296 278 269 273 277 277 277 294 305 292 283
82 117 124 139 148 171 151 124 28 296 277 286 320 345 342 358 34 9 332 329 341 323 308 311 317 345 360 346 332 317 316 312 309 270 247 272 283 279 271 278 254 262 265
157 115 119 122 118 77 53 356 1 325 324 331 346 23 28 333 49 20 348 333 328 315 301 279 207 318 319 316 334 331 316 320 314 307 306 295 259 260 220 243 255 246 242
198 106 86 58 41 23 24 20 348 333 350 353 348 335 341 9 26 63 14 329 318 305 292 303 310 326 309 306 313 335 322 312 314 306 301 291 291 279 265 242 245 249 239
91 79 68 48 19 20 7 14 23 16 353 343 333 332 2 355 46 109 324 304 303 286 293 307 310 335 306 299 300 332 304 302 328 329 334 319 307 294 273 282 232 239 250
52 46 37 57 63 63 76 63 349 348 342 346 347 342 351 1 357 74 338 315 284 288 300 323 301 286 286 295 337 305 283 311 325 325 324 336 330 312 288 259 241 230 234
70 88 77 66 48 35 21 15 2 8 14 359 2 4 1 3 21 21 354 340 335 327 334 311 310 280 269 289 321 338 331 328 327 321 309 316 308 305 295 237 228 219 204
46 43 33 24 16 348 25 14 39 58 16 18 25 12 10 43 30 324 320 6 359 357 312 341 344 346 343 350 351 353 350 350 345 341 326 319 325 317 301 310 233 220 209
41 28 21 331 16 310 336 84 68 74 64 55 25 355 350 265 322 329 26 27 360 332 351 359 355 350 354 349 349 345 348 349 345 333 333 320 319 334 299 277 275 220 223
355 340 333 309 318 339 360 343 316 112 70 56 34 154 2 326 2 47 43 8 42 353 17 9 5 2 357 354 351 349 346 346 333 339 332 327 327 326 301 296 278 243 223
294 278 305 317 347 6 7 11 36 95 125 106 144 23 55 51 52 36 5 342 17 25 23 18 9 6 2 355 351 356 350 349 345 344 341 339 332 314 308 284 248 223 167
314 337 32 43 34 23 29 71 113 117 107 101 137 167 120 115 105 77 23 28 18 17 15 15 10 8 5 2 354 354 354 356 348 346 349 1 329 320 332 332 170 143 116
44 97 140 221 112 144 122 123 140 209 208 167 9 18 360 251 128 44 40 27 22 20 12 8 9 13 1 355 356 355 357 353 356 349 356 3 342 331 356 16 69 113 95
129 154 157 200 131 67 94 145 357 335 347 334 344 35 353 309 29 51 41 35 22 20 12 2 358 0 2 8 352 348 354 346 356 356 2 357 357 342 4 43 58 96 84
153 145 156 111 83 55 289 222 195 281 312 319 311 254 190 280 357 201 56 42 33 25 16 2 355 354 7 348 349 346 342 347 348 353 0 7 11 7 31 58 68 81 82
336 154 186 163 177 137 232 257 267 305 332 344 352 3 33 10 29 7 25 31 28 22 17 11 2 360 355 346 357 344 347 346 330 336 354 17 27 31 33 36 83 84 84
41 37 41 39 13 307 342 9 54 68 57 59 54 44 41 37 32 25 350 4 12 20 17 10 9 7 356 351 352 355 350 341 326 327 341 9 42 50 63 57 90 101 97
41 38 43 36 38 42 48 61 58 65 60 51 50 42 45 39 33 25 16 11 7 4 8 1 1 354 357 354 358 351 348 334 334 321 335 3 38 59 91 79 85 78 96
49 53 49 50 50 52 48 47 45 41 49 64 41 28 17 29 20 17 14 10 358 351 349 349 345 344 346 352 1 337 326 336 336 328 335 359 17 67 96 107 119 111 103